Location:  
MeteoStar


Sort by weather type Sort by elevation Sort by visibility Sort from west to east north Sort from north to south Alphabetically Sort from strongest wind speed Sort from lowest to highest pressure Sort from highest to lowest dew point temperature Sort coolest temperatures to warmest Sort warm temperatures to coolest
 Metric

Current Observations for Turkey

Adana / Incirlik07:20ZMostly Cloudy75 5791008.1E 4 75239
Adana / Sakirpasa07:20ZPartly Cloudy73 5991008.1SE 4 7365
Adapazari07:00ZMostly Cloudy65 60121015.7NE 3 6598
Afyon07:00ZMostly Cloudy52 45121015.2NNW 3 523392
Agri07:00ZPartly Cloudy65 5012E 9 655354
Akhisar07:00ZPartly Cloudy69 53121015.9NNE 6 69305
Amasya07:00ZShowers57 5431011.7N 1 571351
Anamur07:00ZMostly Cloudy73 57121008.7ESE 1 739
Ankara / Central07:00ZMostly Cloudy62 45121011.2ENE 4 622923
Ankara / Esenboga07:20ZMostly Cloudy57 451012.5N 11 573126
Antalya07:20ZPartly Cloudy77 46121009.0W 8 77164
Artvin07:00ZMostly Cloudy67 52121008NNE 1 6798
Aydin07:00ZClear71 50121013.2S 2 71187
Batman07:00ZClear73 54121005.5NW 1 731771
Bingol07:00ZPartly Cloudy67 50121009.2NNE 2 673861
Bodrum Milas Airport07:20ZClear73 48121013.1N 8 7319
Bodrum07:00ZClear73 51121013.4N 8 7388
Bolu07:00ZCloudy55 5091015.9SE 1 552434
Bursa07:00ZMostly Cloudy68 5791016.7NE 2 68331
Canakkale07:00ZPartly Cloudy69 56121017.2NE 5 699
Corlu07:20ZMostly Cloudy64 55121017.1N 7 64567
Corum07:00ZLight Showers55 5391012.9NNW 5 552545
Dalaman07:20ZClear75 45121010.1NNW 15 7522
Denizli07:00ZMostly Cloudy64 51121013.9NW 4 641404
Dikili07:00ZClear71 53121016.4W 1 719
Diyarbakir07:20ZClear77 50121006.1E 6 772250
Edirne07:00ZClear71 60121017.2W 2 71157
Elazig07:06ZThunderstorm63 50121009.5N 3 632959
Erzincan07:23ZLight Showers52 43121011.7S 3 523792
Erzurum07:20ZPartly Cloudy59 4612ENE 15 595761
Finike07:00ZClear73 58121009.4SSE 3 739
Gaziantep07:20ZPartly Cloudy70 41121008.4W 7 702299
Gemerek07:00ZCloudy50 47151011.5S 1 503841
Giresun07:00ZCloudy65 57121010.7W 2 65124
Golcuk / Dumlupinar07:00ZCloudy68 61121016.7WNW 6 6859
Gumushane07:00ZPartly Cloudy53 45121012.6ENE 9 503999
Hakkari07:00ZMostly Cloudy67 2512861.1S 5 671256
Hopa07:00ZMostly Cloudy66 61121011.0WNW 4 66108
Igdir07:00ZPartly Cloudy66 52121009.2WNW 2 662814
Inebolu07:00ZLight Showers58 5651015.0SW 4 58209
Iskenderun07:00ZMostly Cloudy74 5991008.7W 2 749
Isparta07:00ZPartly Cloudy60 44121012.2NNW 5 603270
Istanbul / Ataturk07:20ZPartly Cloudy64 5791016.1SSE 8 64157
Izmir / Adnan Menderes07:20ZNot Avail.72 50121014.0NNE 14 72410
Izmir07:00ZClear72 51121015.9NNW 3 7282
Kahramanmaras07:00ZPartly Cloudy69 49121006.2SSW 1 691801
Kastamonu07:00ZCloudy55 47121014.2NNW 3 552621
Kayseri / Erkilet07:20ZMostly Cloudy55 4671012.7WSW 5 553454
Kirklareli07:00ZClear69 59121016.7NNE 3 69761
Kirsehir07:00ZCloudy53 49121010.9N 8 503264
Konya / Eregli07:00ZLight Showers56 4671012.2SW 5 563425
Kumkoy07:00ZMostly Cloudy66 61121016.9NNW 3 6698
Malatya / Erhac07:20ZMostly Cloudy64 5071009.4N 5 642828
Manisa07:00ZClear69 53121015.7ENE 2 69232
Marmaris07:00ZClear73 49121011.7NNW 5 739
Mersin07:00ZPartly Cloudy74 58121008.5ESE 3 749
Merzifon07:20ZLight Showers55 5451010.9SSE 5 551788
Mugla07:00ZPartly Cloudy64 47121012.0WNW 4 642119
Murted Tur-Afb 07:00ZMostly Cloudy60 5191015.5NW 3 602765
Mus07:00ZPartly Cloudy65 50121006.0NNE 1 654330
Nevsehir07:00ZCloudy50 46121013.4W 1 504133
Nevsehir07:20ZMostly Cloudy57 5091012.5W 5 573100
Nigde07:00ZCloudy51 47121012.5WSW 3 513963
Samsun07:00ZLight Showers63 5291011.2NNW 7 6313
Siirt07:00ZClear75 42121005.7WSW 5 752936
Silifke07:00ZClear78 48121008.0W 5 7849
Sinop07:00ZShowers57 5771013NW 8 57104
Sivas07:00ZMostly Cloudy58 4391009.5ENE 2 584215
Tatvan07:00ZPartly Cloudy62 4912NE 2 625459
Tekirdag07:00ZClear68 59121017.0NE 6 6813
Tokat07:00ZCloudy57 5491009.9NW 2 571994
Trabzon07:07ZLight Showers61 59121010.1SE 10 61114
Urfa07:00ZClear76 46121005.5W 2 761794
Yozgat07:00ZCloudy50 4691011.2NE 5 484258
Zonguldak07:00ZLight Showers59 5971016.7WNW 3 59446

Atlantic
Tropical Watch